This is the latest recevied weather packets stored in our database for station/object KA0WKG. If no packets are shown the sender has not sent any weather packets the latest 10 day(s).
| Time | Temp. | Humidity | Pressure | Rain* | Wind** | Luminosity | Snow |
|---|---|---|---|---|---|---|---|
| 1777791305 | 6.67° C | 61% | 1013.7 hPa | 0 mm | - | - | - |
| 1777786808 | 7.78° C | 55% | 1013.8 hPa | 0 mm | - | - | - |
| 1777784108 | 9.44° C | 50% | 1013.7 hPa | 0 mm | - | - | - |
| 1777781408 | 10° C | 49% | 1013.9 hPa | 0 mm | - | - | - |
| 1777778408 | 12.22° C | 42% | 1013.9 hPa | 0 mm | - | - | - |
| 1777777807 | 12.78° C | 39% | 1014 hPa | 0 mm | - | - | - |
| 1777777208 | 12.22° C | 39% | 1013.9 hPa | 0 mm | - | - | - |
| 1777775408 | 13.33° C | 41% | 1013.9 hPa | 0 mm | - | - | - |
| 1777774807 | 13.89° C | 39% | 1013.8 hPa | 0 mm | - | - | - |
| 1777774507 | 13.89° C | 37% | 1013.8 hPa | 0 mm | - | - | - |
| 1777773909 | 15° C | 35% | 1013.7 hPa | 0 mm | - | - | - |
| 1777771808 | 19.44° C | 26% | 1013.8 hPa | 0 mm | - | - | - |
| 1777770908 | 20.56° C | 23% | 1013.8 hPa | 0 mm | - | - | - |
| 1777770607 | 21.11° C | 22% | 1013.7 hPa | 0 mm | - | - | - |
| 1777767008 | 23.33° C | 17% | 1014.2 hPa | 0 mm | - | - | - |
| 1777766107 | 23.33° C | 17% | 1014.4 hPa | 0 mm | - | - | - |
| 1777765807 | 23.33° C | 17% | 1014.4 hPa | 0 mm | - | - | - |
| 1777762207 | 23.33° C | 16% | 1015.1 hPa | 0 mm | - | - | - |
| 1777759207 | 22.78° C | 16% | 1015.9 hPa | 0 mm | - | - | - |
| 1777758908 | 22.78° C | 18% | 1016 hPa | 0 mm | - | - | - |
| 1777756508 | 21.67° C | 14% | 1016.9 hPa | 0 mm | - | - | - |
| 1777755007 | 22.22° C | 16% | 1017.3 hPa | 0 mm | - | - | - |
| 1777753806 | 21.67° C | 16% | 1017.5 hPa | 0 mm | - | - | - |
| 1777747206 | 19.44° C | 25% | 1019.1 hPa | 0 mm | - | - | - |
| 1777746907 | 19.44° C | 26% | 1019.2 hPa | 0 mm | - | - | - |
* Rain latest hour (hover to see other rain measurements)
** Current wind speed in m/s (hover to see current wind gust speed)